Location: Oberkirch
(48.5323°N, 8.0787°E)
Time: 15:27:58
(UTC+00:00)

Tiros 1 despin weight - Pass Details

Date: 15 February 2026
Orbit: 556 x 593 km, 48.2° (Epoch: 5 March)

Event Time Altitude Azimuth Distance (km) Brightness Sun altitude
Rises 20:20:57 0° 283° (WNW) 2,737 ? -35.1°
Reaches altitude 10° 20:23:16 10° 276° (W) 1,843 ? -35.5°
Enters shadow 20:23:48 13° 274° (W) 1,644 ? -35.6°
